Wind_Speed
5 4 4 3 3 3 3 3 2 2 0 1 2 2 2 2 2 2 2 2 2 1 1 1 1 2 3 3 4 3 3 3 2 2 2 2 2 2 2 2 1 1 1 1 1 1 1 1 2
6 6 7 7 6 5 7 5 5 3 2 1 1 1 1 2 2 2 2 1 1 1 1 1 2 4 4 5 5 5 5 5 4 3 3 3 3 3 2 2 2 2 2 2 2 2 2 1 1
8 9 9 10 9 10 10 8 7 5 4 4 3 2 2 1 2 2 2 1 1 2 3 3 4 5 6 6 6 7 6 6 6 5 5 5 5 4 4 4 4 4 4 5 5 5 5 4 4
11 12 12 13 14 14 13 12 11 9 7 6 5 4 3 3 3 3 3 3 3 4 4 5 6 7 7 7 8 8 8 8 8 8 7 7 6 6 6 6 6 6 6 6 6 7 7 7 7
14 14 15 16 18 17 15 14 13 12 11 9 8 7 6 5 4 4 4 4 4 5 6 6 7 8 9 9 9 10 10 10 10 10 10 9 9 8 8 8 7 7 7 8 8 8 9 9 9
17 17 17 19 21 20 19 17 16 15 14 12 10 9 8 7 6 5 4 5 5 6 7 8 10 11 11 12 12 12 13 13 13 13 13 12 11 10 10 10 9 9 9 10 10 10 10 10 10
19 20 21 22 23 24 22 20 19 18 17 15 13 12 11 9 7 6 6 6 6 8 9 11 12 13 13 14 14 14 15 15 15 15 15 14 14 13 13 12 12 12 12 12 12 12 12 12 12
22 22 23 24 25 27 25 24 22 21 20 17 16 15 14 11 10 9 9 8 9 10 11 13 14 15 15 15 16 17 17 17 18 18 18 17 17 17 16 16 15 15 15 15 14 14 14 14 14
23 24 25 27 28 29 28 26 25 23 22 20 19 17 16 13 12 12 11 12 12 12 14 15 16 16 17 18 19 19 19 19 21 21 22 22 21 21 19 18 18 17 17 17 17 16 16 17 17
23 24 26 27 28 29 29 27 25 24 24 22 21 19 17 16 14 13 14 14 14 15 17 18 18 19 19 20 20 21 21 21 21 22 23 23 22 22 22 22 21 20 20 19 19 19 19 18 18
19 21 24 26 27 27 27 26 25 25 24 23 22 21 20 19 17 16 16 17 18 18 19 19 19 20 20 20 21 22 22 23 22 23 24 24 23 23 24 24 24 24 23 23 23 22 21 20 20
15 16 19 22 24 25 25 25 24 23 24 23 22 22 22 21 20 19 20 20 20 20 21 21 21 20 20 21 22 23 23 24 24 24 24 23 23 23 24 26 26 25 24 24 24 23 22 21 22
10 11 13 16 19 21 22 22 23 22 22 22 22 22 22 22 22 22 22 22 22 22 22 21 20 21 20 21 22 22 24 24 24 24 23 23 23 23 25 26 27 27 26 25 25 24 24 24 23
8 8 9 10 13 16 18 19 20 21 22 21 21 21 22 21 22 22 22 22 23 23 22 21 21 22 21 21 22 23 23 22 23 24 25 24 23 24 24 24 25 25 25 25 26 25 26 26 26
9 9 8 8 9 11 14 17 19 20 21 21 21 21 22 21 21 22 22 23 22 21 22 21 21 22 21 21 21 20 21 20 20 21 22 22 22 23 25 25 24 25 25 25 26 26 26 27 27
11 10 10 10 9 8 9 13 17 18 19 20 20 21 22 20 20 21 21 22 21 21 21 20 20 19 18 19 19 19 19 20 20 20 22 22 23 24 25 26 25 25 26 26 26 27 28 28 28
11 9 9 12 9 8 9 12 14 16 17 18 19 20 20 20 20 20 20 20 20 19 19 19 18 18 17 17 18 19 20 20 21 22 23 24 25 25 25 26 26 26 27 28 28 28 29 29 29
8 8 9 10 9 8 8 10 11 13 15 16 17 18 18 19 18 19 19 19 18 17 17 17 17 17 17 17 18 18 19 20 21 23 24 25 26 27 27 27 27 28 29 29 29 30 31 32 32
8 7 8 8 7 6 7 9 10 13 14 15 15 15 16 17 17 17 17 15 15 16 16 16 17 17 17 18 19 19 20 21 23 24 25 26 26 27 28 28 28 29 30 30 31 31 32 33 33
8 7 8 8 7 7 7 8 10 11 12 13 13 13 13 14 15 14 13 13 14 14 15 15 16 17 18 19 19 20 22 23 24 26 26 27 27 28 28 29 29 29 30 31 31 32 33 33 34
7 7 7 7 7 7 7 7 8 8 9 10 11 12 13 14 13 12 12 13 13 14 15 17 17 17 18 19 20 22 23 24 25 27 27 28 28 29 29 29 29 30 30 30 31 32 32 33 34
7 6 7 7 7 7 6 7 6 5 6 7 9 10 10 11 10 11 12 13 13 15 16 17 17 17 18 20 21 23 24 25 26 27 28 28 29 29 29 29 30 30 31 31 31 32 33 33 34
7 7 7 7 7 6 6 6 6 6 6 7 7 7 8 9 10 11 11 12 13 15 16 16 17 18 20 21 23 23 24 25 26 27 27 28 28 28 29 29 30 30 31 31 32 33 34 34 35
7 7 7 7 6 6 7 7 8 7 6 5 6 6 7 8 9 10 11 13 14 15 16 17 19 20 21 22 23 23 24 24 25 26 27 27 28 28 28 29 30 31 32 32 33 34 35 35 36
7 6 6 7 7 7 7 7 8 8 7 7 7 7 7 8 10 11 13 14 14 16 17 18 20 21 22 22 23 23 24 25 26 27 27 27 28 29 29 30 31 32 33 34 34 35 36 37 37
7 5 4 4 5 8 8 8 9 9 9 8 8 7 8 9 11 12 13 14 15 16 18 19 20 21 22 22 23 23 24 26 26 27 27 28 29 30 30 31 32 33 34 35 35 36 37 37 38
7 6 5 5 6 7 8 9 9 9 9 8 8 9 10 11 12 13 14 15 16 17 19 19 21 22 22 23 23 24 25 27 27 28 28 29 30 31 32 33 34 35 36 36 37 37 38 38 39
8 7 5 3 4 5 9 9 9 9 9 9 9 10 11 12 12 13 14 15 17 18 19 20 21 21 22 23 24 25 26 27 28 29 30 31 32 33 34 35 36 37 37 37 37 38 38 39 39
8 6 5 4 5 2 5 9 9 9 9 10 10 10 11 11 12 13 15 16 17 18 19 20 21 22 23 24 25 26 28 29 30 31 33 34 35 36 36 37 37 38 38 38 38 38 39 39 39
7 6 6 5 6 5 4 10 10 9 10 10 10 11 11 12 12 14 15 16 17 18 19 21 22 23 24 25 27 28 30 32 33 35 36 37 38 38 39 39 39 38 38 38 38 39 38 38 38
Wind_Direction
340 325 310 300 295 302 291 291 290 284 254 136 121 104 87 91 86 70 47 42 53 44 29 359 291 280 282 283 284 279 271 256 232 204 190 180 172 159 151 147 132 109 92 80 67 62 63 75 86
313 300 287 283 278 265 271 274 274 279 265 280 305 329 23 40 34 28 12 8 355 327 322 306 282 277 272 271 275 270 267 261 256 245 233 228 226 226 228 222 224 233 239 246 263 277 283 285 282
300 289 280 278 270 258 264 264 264 264 261 268 272 283 313 339 343 346 335 325 316 312 304 297 289 282 275 272 271 267 266 263 261 257 250 247 246 245 248 250 251 253 254 255 260 267 270 273 272
289 283 275 269 264 263 262 261 261 258 259 266 267 268 285 309 324 326 327 317 312 309 305 298 293 289 281 276 274 271 270 267 266 263 258 257 256 256 257 257 257 260 263 265 266 268 269 269 267
282 277 272 268 265 261 259 258 258 257 258 263 266 268 278 288 298 308 310 313 309 311 314 307 297 288 281 278 276 275 274 272 272 269 265 262 259 258 257 257 259 264 266 268 270 271 270 268 265
276 273 267 259 262 261 258 255 253 256 256 259 263 264 271 278 286 297 306 308 306 310 310 304 296 286 281 279 276 275 273 274 275 274 270 265 262 261 259 259 263 265 266 268 270 270 269 266 264
272 267 263 260 259 257 257 256 254 254 254 255 256 258 268 277 283 290 296 302 300 305 304 301 296 287 282 278 277 277 275 273 272 272 271 268 265 263 261 263 264 265 265 267 268 267 265 263 263
269 264 262 258 254 253 255 253 254 254 253 254 254 256 263 271 280 291 294 295 297 299 299 299 295 288 284 281 279 279 276 273 273 271 268 266 263 261 261 263 264 265 267 268 267 266 264 263 262
268 262 258 255 250 250 252 250 251 252 252 253 255 257 264 271 280 289 295 298 299 299 299 298 291 288 286 280 278 278 278 275 273 272 268 267 264 262 262 264 264 264 266 267 266 267 267 264 262
269 261 256 255 252 250 249 249 248 248 251 252 256 261 262 271 280 286 292 294 295 296 296 296 292 288 284 279 277 278 279 279 278 277 276 272 268 266 266 266 266 265 266 266 266 267 268 267 265
272 264 259 255 251 248 247 245 244 244 247 249 254 259 264 272 276 281 288 292 293 292 293 293 291 289 282 277 277 278 279 279 277 278 276 277 272 269 267 269 270 267 267 268 269 269 269 268 267
280 270 262 257 252 247 244 242 241 241 244 249 253 258 264 269 275 280 285 288 289 290 291 291 289 287 280 278 277 277 279 278 277 276 276 277 275 273 274 275 272 272 270 271 271 272 270 269 269
299 286 272 263 256 249 244 240 239 239 241 245 250 254 258 263 269 276 283 286 289 290 289 288 285 286 284 281 278 280 280 279 278 280 279 281 280 278 281 278 275 273 273 273 272 272 273 270 271
325 312 296 278 265 253 242 237 237 240 241 244 247 251 256 261 270 277 282 284 286 286 288 284 282 284 284 284 282 282 281 279 279 279 280 283 283 281 282 284 279 275 274 275 275 272 272 272 271
342 334 318 298 278 258 242 236 236 239 242 245 248 252 256 262 268 274 278 282 286 287 288 284 282 283 284 283 284 290 285 282 283 283 282 283 284 284 283 281 282 277 276 278 276 274 275 273 271
350 347 330 309 294 267 244 238 236 237 241 245 247 252 258 261 266 272 276 280 285 287 288 288 285 289 287 285 285 290 288 286 285 286 286 285 287 288 287 282 283 281 280 278 277 275 276 274 273
349 339 315 308 299 277 251 245 240 239 243 246 250 254 258 261 265 271 275 280 286 289 288 291 290 289 288 291 292 292 291 288 288 289 290 290 290 288 288 284 284 284 283 280 279 278 276 274 272
318 325 321 315 310 288 263 250 247 242 243 246 250 255 258 260 265 271 276 281 287 289 290 291 289 290 291 293 296 295 295 295 293 293 293 292 290 289 288 285 284 284 283 281 279 277 275 273 270
332 339 336 328 329 307 284 272 265 256 248 249 254 255 257 260 266 272 279 285 287 291 290 292 293 292 293 296 298 300 299 298 297 296 295 294 293 291 290 288 286 284 282 281 278 276 274 272 270
343 349 342 336 332 319 300 289 279 269 259 254 252 256 261 265 271 278 282 288 293 295 297 301 302 301 301 301 303 304 302 301 300 299 299 297 296 294 292 290 288 286 284 281 279 277 275 273 270
341 340 335 331 333 324 314 305 295 281 262 254 255 260 261 268 274 280 291 297 300 301 304 307 307 306 306 306 306 304 303 301 301 301 300 300 299 297 295 293 290 288 286 283 280 278 276 273 271
341 338 342 339 342 340 342 331 317 300 279 270 269 269 269 273 280 292 298 301 304 307 306 307 308 309 309 308 306 305 304 302 302 302 301 300 299 297 295 293 290 288 286 283 281 279 277 274 272
335 335 334 338 342 347 346 345 337 327 306 292 284 279 278 283 292 297 299 303 305 308 310 309 309 309 309 308 307 307 306 305 304 303 302 300 298 296 294 293 291 289 286 284 282 279 277 275 273
330 329 333 342 354 346 338 340 333 336 331 315 309 300 292 294 298 302 303 305 307 309 309 309 310 310 311 311 311 310 310 308 307 306 305 303 301 299 297 295 293 291 288 285 283 280 278 276 274
321 340 349 345 338 318 325 329 327 336 338 334 327 320 314 309 307 306 306 308 309 309 309 310 311 313 314 314 313 313 312 311 310 308 307 305 303 302 299 297 295 292 289 286 284 281 278 276 274
310 318 313 309 306 309 317 319 323 327 332 336 336 330 321 314 310 310 311 311 310 309 310 312 314 315 315 315 315 315 315 314 312 310 309 307 305 303 301 299 297 294 291 288 285 282 279 276 274
294 293 290 306 314 317 309 312 319 325 329 330 328 324 319 316 312 310 309 309 309 310 312 314 315 316 316 316 316 316 316 316 315 314 312 311 309 306 304 301 299 296 293 289 286 283 280 277 274
279 280 283 296 299 308 311 315 318 322 327 327 325 322 317 314 310 308 308 309 311 313 314 315 317 317 318 318 318 319 319 318 317 316 315 314 311 308 306 304 301 298 295 291 287 284 281 277 274
271 265 265 271 267 261 301 298 307 314 320 324 323 319 314 311 308 307 308 312 314 315 316 317 319 320 321 322 322 322 322 321 320 319 317 315 313 310 308 306 303 300 296 292 288 285 282 278 274
264 259 262 268 274 275 284 292 300 307 312 316 316 312 309 308 308 309 312 314 316 317 318 320 322 323 324 324 324 323 323 322 321 319 318 316 313 311 309 307 305 301 298 294 290 286 283 279 275
Height
5931 5931 5931 5931 5932 5932 5931 5930 5929 5929 5928 5927 5927 5926 5925 5925 5926 5927 5924 5923 5922 5922 5921 5921 5921 5921 5920 5920 5920 5919 5919 5918 5918 5917 5916 5916 5915 5915 5914 5914 5914 5913 5913 5913 5912 5912 5912 5911 5911
5931 5930 5930 5931 5931 5932 5930 5929 5929 5928 5928 5927 5926 5925 5924 5924 5923 5923 5922 5922 5921 5921 5920 5920 5920 5920 5920 5920 5919 5918 5918 5917 5917 5916 5916 5915 5915 5914 5914 5913 5913 5913 5913 5912 5912 5912 5911 5911 5911
5929 5928 5929 5929 5929 5929 5928 5928 5928 5927 5927 5926 5925 5924 5924 5923 5922 5922 5922 5921 5920 5920 5919 5919 5919 5919 5919 5919 5918 5917 5917 5916 5915 5915 5914 5914 5913 5913 5913 5912 5912 5912 5912 5911 5911 5911 5911 5910 5910
5927 5927 5927 5927 5926 5925 5925 5925 5925 5925 5925 5925 5924 5923 5922 5922 5921 5921 5920 5920 5919 5919 5918 5918 5918 5918 5917 5917 5916 5916 5915 5915 5914 5913 5913 5912 5912 5911 5911 5911 5911 5910 5910 5910 5910 5910 5909 5909 5909
5924 5924 5924 5923 5922 5922 5922 5923 5923 5923 5923 5923 5922 5922 5921 5920 5920 5919 5919 5918 5917 5917 5917 5917 5916 5916 5915 5915 5914 5914 5913 5913 5913 5912 5911 5910 5910 5909 5909 5909 5909 5909 5909 5908 5908 5908 5907 5907 5907
5922 5921 5921 5920 5918 5918 5918 5919 5920 5920 5920 5920 5920 5920 5919 5919 5918 5918 5917 5916 5916 5915 5915 5914 5914 5914 5913 5913 5912 5911 5911 5911 5910 5910 5909 5908 5908 5907 5907 5906 5906 5906 5906 5906 5906 5905 5905 5905 5905
5918 5917 5916 5915 5913 5913 5914 5916 5916 5917 5918 5918 5918 5917 5917 5917 5916 5916 5915 5915 5914 5914 5913 5912 5912 5911 5910 5910 5909 5908 5908 5908 5907 5907 5906 5905 5905 5904 5904 5903 5903 5903 5903 5903 5902 5902 5902 5902 5902
5911 5912 5911 5910 5910 5908 5910 5911 5912 5913 5914 5915 5915 5915 5915 5915 5914 5914 5913 5913 5912 5911 5911 5910 5909 5908 5907 5906 5906 5905 5904 5904 5903 5903 5902 5902 5901 5900 5900 5900 5900 5899 5899 5899 5899 5899 5898 5898 5899
5905 5907 5905 5904 5904 5904 5904 5906 5908 5910 5911 5911 5911 5911 5912 5912 5912 5912 5911 5911 5910 5909 5908 5907 5906 5905 5903 5902 5902 5901 5901 5900 5899 5898 5897 5897 5896 5896 5896 5895 5895 5895 5895 5895 5895 5895 5895 5894 5894
5898 5899 5898 5897 5898 5898 5899 5902 5904 5906 5907 5907 5908 5909 5909 5909 5909 5909 5908 5908 5907 5906 5905 5904 5902 5901 5899 5898 5898 5897 5896 5895 5894 5893 5892 5892 5891 5891 5891 5891 5890 5890 5890 5890 5890 5890 5890 5890 5890
5891 5892 5891 5891 5892 5893 5895 5897 5899 5902 5903 5904 5905 5906 5906 5907 5906 5906 5905 5905 5904 5903 5902 5901 5899 5897 5895 5895 5894 5893 5892 5890 5889 5888 5887 5887 5886 5886 5886 5886 5885 5885 5885 5885 5885 5884 5885 5884 5885
5886 5886 5885 5885 5886 5888 5890 5893 5895 5897 5899 5900 5901 5902 5903 5903 5903 5902 5902 5901 5900 5900 5899 5897 5896 5894 5892 5891 5890 5888 5887 5886 5885 5883 5882 5882 5881 5881 5880 5880 5880 5880 5879 5879 5879 5879 5879 5879 5879
5883 5882 5881 5881 5882 5883 5885 5888 5890 5892 5894 5896 5897 5899 5899 5899 5899 5898 5898 5897 5896 5895 5894 5893 5891 5890 5888 5886 5885 5884 5882 5881 5880 5878 5877 5877 5877 5877 5876 5875 5874 5874 5874 5873 5873 5873 5873 5873 5873
5880 5879 5878 5878 5878 5880 5881 5884 5886 5888 5890 5891 5893 5894 5894 5894 5894 5894 5893 5893 5892 5890 5890 5888 5887 5885 5883 5882 5881 5880 5878 5877 5876 5875 5874 5873 5872 5871 5870 5869 5869 5868 5868 5867 5867 5867 5867 5866 5866
5878 5877 5876 5876 5876 5876 5878 5880 5882 5884 5885 5887 5888 5889 5890 5889 5890 5889 5889 5888 5887 5886 5885 5884 5882 5881 5879 5878 5877 5876 5874 5873 5871 5870 5869 5868 5867 5866 5865 5864 5864 5862 5861 5861 5860 5860 5860 5860 5860
5877 5877 5877 5875 5874 5874 5877 5878 5878 5879 5881 5882 5884 5885 5885 5885 5885 5885 5885 5884 5883 5882 5881 5879 5878 5876 5875 5873 5872 5871 5870 5868 5866 5865 5864 5863 5862 5861 5859 5858 5858 5856 5855 5854 5854 5854 5854 5853 5853
5878 5878 5877 5874 5872 5872 5873 5874 5875 5876 5877 5878 5879 5880 5880 5881 5881 5881 5880 5880 5879 5877 5876 5875 5874 5872 5871 5869 5867 5866 5865 5863 5861 5860 5859 5857 5856 5854 5853 5852 5851 5849 5848 5847 5847 5847 5847 5846 5846
5879 5877 5875 5872 5870 5870 5870 5870 5871 5872 5873 5874 5875 5876 5876 5877 5877 5877 5876 5875 5874 5873 5872 5871 5869 5868 5867 5866 5864 5862 5860 5858 5856 5855 5853 5851 5849 5848 5846 5845 5843 5842 5841 5840 5839 5839 5839 5838 5838
5876 5875 5873 5871 5869 5869 5868 5868 5868 5868 5869 5870 5871 5872 5872 5872 5872 5872 5872 5871 5870 5869 5868 5867 5865 5864 5863 5862 5859 5857 5855 5853 5851 5849 5847 5845 5843 5841 5839 5837 5836 5834 5833 5832 5831 5831 5830 5830 5830
5875 5874 5872 5870 5869 5868 5867 5866 5866 5865 5866 5867 5867 5868 5868 5868 5868 5868 5868 5867 5867 5865 5864 5863 5861 5860 5858 5857 5854 5852 5850 5847 5845 5843 5840 5838 5836 5834 5831 5830 5828 5826 5825 5824 5823 5822 5821 5821 5821
5874 5873 5872 5870 5868 5867 5866 5865 5864 5863 5863 5864 5864 5865 5864 5864 5865 5865 5865 5864 5863 5862 5861 5859 5857 5855 5854 5852 5849 5847 5845 5842 5839 5836 5834 5831 5828 5826 5824 5822 5820 5818 5816 5815 5814 5813 5812 5812 5812
5874 5872 5871 5869 5868 5867 5866 5865 5863 5862 5862 5862 5862 5862 5862 5862 5862 5862 5862 5861 5860 5859 5857 5855 5854 5852 5850 5847 5845 5842 5839 5836 5833 5830 5827 5824 5822 5819 5817 5815 5812 5810 5808 5807 5806 5805 5803 5802 5802
5873 5871 5870 5868 5867 5866 5865 5865 5865 5862 5861 5860 5860 5859 5860 5860 5860 5860 5859 5858 5857 5855 5854 5852 5850 5848 5846 5843 5840 5837 5834 5831 5827 5824 5821 5818 5815 5812 5810 5807 5805 5803 5800 5799 5797 5796 5794 5793 5792
5872 5871 5870 5868 5867 5868 5866 5865 5864 5861 5860 5859 5858 5858 5858 5858 5858 5857 5857 5856 5854 5853 5851 5848 5846 5844 5841 5838 5834 5831 5828 5825 5821 5818 5815 5812 5808 5805 5802 5800 5797 5794 5792 5790 5788 5786 5785 5783 5782
5871 5871 5872 5871 5870 5868 5866 5864 5864 5861 5859 5858 5857 5857 5856 5856 5856 5855 5854 5853 5851 5850 5848 5845 5842 5839 5836 5833 5830 5826 5823 5819 5816 5812 5809 5805 5801 5798 5795 5792 5789 5786 5783 5780 5778 5776 5774 5773 5772
5870 5870 5871 5871 5870 5867 5865 5864 5863 5860 5858 5857 5856 5856 5855 5854 5854 5853 5851 5850 5848 5846 5844 5841 5838 5835 5831 5828 5825 5821 5817 5814 5810 5806 5802 5798 5794 5791 5787 5783 5780 5776 5773 5770 5768 5765 5764 5762 5761
5869 5869 5868 5868 5867 5867 5865 5863 5861 5859 5858 5857 5856 5855 5854 5853 5852 5850 5849 5847 5845 5843 5840 5837 5834 5831 5827 5824 5820 5816 5812 5808 5804 5800 5795 5791 5787 5783 5779 5774 5770 5766 5763 5760 5757 5754 5752 5750 5749
5867 5867 5867 5867 5867 5867 5865 5862 5861 5858 5857 5856 5855 5854 5852 5851 5850 5848 5846 5844 5842 5839 5837 5834 5830 5827 5823 5819 5815 5811 5806 5802 5797 5793 5788 5783 5779 5774 5769 5765 5760 5756 5752 5749 5745 5743 5740 5738 5737
5865 5865 5865 5865 5864 5866 5866 5865 5860 5858 5856 5855 5853 5852 5851 5849 5848 5846 5844 5841 5839 5836 5833 5830 5826 5822 5818 5814 5809 5805 5800 5796 5791 5786 5780 5775 5770 5765 5759 5754 5749 5745 5741 5737 5733 5730 5728 5726 5724
5862 5862 5863 5863 5862 5862 5863 5864 5857 5856 5855 5853 5852 5850 5849 5847 5845 5843 5841 5838 5835 5832 5829 5825 5821 5817 5813 5809 5804 5799 5794 5789 5783 5778 5772 5766 5760 5754 5749 5743 5738 5733 5729 5725 5721 5718 5715 5713 5711